Probability
42 19 13 26 13 3 0 0 0 0 0 3 6 6 3 0 0 3 3 23 19 35 55 74 81 74 71 68 68 71 74 68 65 68 68 65 65 65 55 61 68 65 68 65 65 58 55 55 55
13 10 23 23 3 0 0 0 0 0 0 0 6 6 10 6 3 6 23 19 26 35 45 58 74 74 71 71 65 65 65 61 61 68 68 68 65 61 61 52 52 61 61 55 55 55 52 52 55
6 23 19 13 0 0 0 0 0 0 0 0 3 3 10 13 19 6 23 19 23 26 29 55 81 71 65 71 71 68 65 61 65 65 65 65 65 61 58 55 48 52 55 52 55 55 52 55 55
19 29 23 3 0 0 0 0 0 0 0 0 3 3 6 16 16 19 26 19 19 26 39 55 81 71 65 65 61 58 61 61 58 61 65 61 58 58 61 55 52 48 45 52 42 42 48 48 48
26 19 16 0 0 0 0 0 0 0 0 3 3 3 6 10 13 16 26 19 16 23 39 48 74 74 71 71 68 58 58 58 58 58 65 65 61 58 58 52 48 42 42 39 45 45 45 42 35
26 10 3 0 0 0 0 0 0 0 0 0 3 0 6 6 13 19 19 19 23 23 35 45 68 68 71 71 65 58 55 52 61 65 65 65 68 65 61 61 48 45 45 39 42 45 45 39 35
10 13 0 0 0 0 0 0 0 0 0 0 0 0 0 6 10 13 13 19 19 23 26 35 48 61 71 74 68 58 61 65 61 61 58 58 61 61 61 61 52 48 48 45 52 42 42 39 42
16 6 0 0 0 0 0 0 0 3 3 3 3 0 0 3 6 13 19 19 23 19 26 32 32 35 39 48 61 55 68 68 61 61 61 58 55 55 65 58 65 58 42 39 45 48 45 48 52
6 0 0 0 3 0 0 3 3 3 3 3 3 0 0 6 6 10 16 16 16 19 26 26 26 26 29 32 52 52 55 52 48 45 48 52 29 26 39 52 58 58 55 55 48 48 52 52 52
0 3 0 0 0 0 3 3 3 3 3 3 3 6 3 3 6 10 10 10 16 19 23 23 23 26 23 29 32 39 42 42 35 23 26 29 16 10 29 55 71 68 74 74 74 61 58 45 16
0 0 0 0 0 0 0 3 3 3 3 3 3 6 6 3 3 13 16 13 13 16 26 19 16 19 26 26 23 23 23 23 23 19 16 19 16 6 26 16 32 45 48 42 42 48 35 23 10
0 0 0 0 0 0 0 0 3 3 3 3 3 6 10 10 6 13 13 16 16 13 16 10 16 16 19 19 26 23 23 16 16 19 16 13 16 13 10 10 13 10 10 13 10 10 13 13 13
0 0 0 0 0 0 0 3 3 3 3 3 3 10 6 10 13 13 19 13 23 23 23 23 29 23 19 19 19 26 19 16 16 13 16 13 16 13 10 10 13 10 10 10 6 3 10 10 6
0 0 0 0 0 0 3 3 3 3 3 3 6 0 3 3 6 16 26 23 16 16 13 16 26 23 16 16 13 13 13 16 16 23 6 6 6 6 6 10 10 10 10 13 6 6 3 10 10
0 0 0 0 6 3 3 6 6 6 3 0 0 0 3 6 13 26 29 26 19 13 19 23 26 23 19 19 16 16 10 10 16 10 10 13 3 3 3 6 6 13 10 10 6 6 6 6 6
0 0 0 0 6 6 3 10 13 6 3 0 3 3 10 10 19 23 32 29 26 19 23 26 26 23 16 16 19 16 10 10 10 10 13 10 6 6 6 10 10 13 10 10 3 3 6 6 6
0 0 0 0 3 6 6 6 13 6 6 6 6 6 10 10 13 19 32 29 26 26 26 26 26 19 19 19 19 13 13 10 10 16 13 10 3 10 13 13 13 13 13 10 10 6 6 6 6
0 0 0 0 0 3 3 10 10 10 10 10 10 6 6 10 16 26 29 29 29 26 26 26 26 16 19 13 10 13 16 10 6 10 13 10 6 13 13 13 13 13 10 6 3 3 3 6 6
0 0 0 0 0 0 0 6 10 13 16 16 13 13 10 13 19 23 23 32 32 29 26 26 23 19 19 16 10 13 13 13 10 10 10 10 10 10 13 10 10 13 10 3 3 3 6 6 6
0 0 0 0 0 0 0 10 6 10 16 16 13 10 13 13 16 19 19 29 32 32 29 23 23 19 23 16 10 10 10 10 6 10 6 10 13 13 16 10 10 10 6 6 6 3 6 10 6
0 0 0 0 0 0 0 10 6 10 10 10 13 10 13 16 13 19 19 23 32 32 29 26 16 16 16 19 13 16 6 10 6 6 13 13 16 13 16 16 10 6 6 10 10 6 6 6 3
0 0 0 0 0 0 0 3 6 6 3 3 3 6 10 13 19 19 19 26 32 29 29 19 19 13 16 19 10 10 6 6 3 3 13 13 16 16 16 23 23 13 10 10 10 3 0 0 6
0 0 0 0 0 0 0 3 3 0 0 3 3 13 16 16 19 19 23 32 32 29 26 19 16 13 23 26 16 6 6 0 3 6 19 13 16 13 16 19 19 16 13 10 10 6 6 0 0
0 0 0 0 0 0 0 0 0 0 0 3 3 10 13 13 19 23 23 29 29 32 32 29 23 29 35 26 13 16 19 6 13 16 13 23 13 16 16 19 19 19 16 10 13 10 3 3 6
0 0 0 0 0 0 0 0 3 0 6 3 3 13 10 23 16 23 23 26 26 32 32 32 29 35 32 32 29 23 16 16 19 23 23 13 16 16 19 19 23 23 19 16 13 16 13 3 3
0 0 0 0 0 0 0 0 3 3 6 6 6 6 13 16 23 26 32 26 23 32 26 29 32 32 32 32 32 26 23 16 16 23 19 13 6 6 13 19 16 23 23 16 13 10 10 6 10
0 0 0 0 0 0 0 0 0 6 10 6 3 6 19 19 19 26 29 29 23 19 16 26 29 29 29 29 26 29 23 23 19 16 16 16 16 16 13 13 19 13 16 13 16 13 6 6 10
0 0 0 0 0 0 0 0 0 3 6 6 3 6 10 26 19 19 23 19 19 16 10 23 29 29 29 29 23 29 26 26 19 19 23 23 19 19 16 19 16 13 10 13 13 10 10 6 6
0 0 0 0 0 0 0 0 0 3 6 3 0 6 10 10 19 16 19 16 16 10 16 19 23 23 26 23 26 26 23 29 29 29 29 23 19 16 16 16 16 16 13 13 10 10 10 6 10
0 0 0 0 0 0 0 0 0 3 0 0 0 10 10 6 6 10 13 10 6 10 16 19 19 23 23 23 26 26 29 32 32 26 26 26 23 19 16 13 10 13 10 6 6 6 6 6 10
Height
5906 5905 5904 5904 5904 5903 5901 5900 5900 5899 5899 5898 5897 5896 5895 5895 5895 5896 5893 5890 5890 5889 5889 5888 5887 5887 5887 5886 5886 5886 5885 5885 5885 5885 5885 5885 5885 5884 5884 5884 5884 5884 5885 5885 5885 5886 5886 5887 5887
5908 5907 5906 5906 5904 5904 5903 5902 5901 5901 5900 5899 5898 5898 5896 5896 5895 5894 5893 5892 5891 5890 5889 5889 5888 5888 5887 5887 5886 5886 5886 5885 5885 5885 5885 5885 5884 5884 5884 5884 5883 5883 5884 5884 5885 5885 5886 5886 5886
5909 5909 5909 5907 5906 5905 5905 5904 5903 5902 5901 5900 5900 5899 5898 5897 5896 5895 5894 5893 5892 5891 5890 5889 5889 5888 5888 5887 5887 5886 5886 5886 5885 5885 5885 5884 5884 5884 5883 5883 5883 5883 5883 5884 5885 5885 5885 5885 5886
5911 5911 5910 5908 5907 5907 5906 5905 5905 5904 5903 5902 5901 5901 5900 5899 5898 5896 5895 5894 5893 5892 5891 5890 5890 5889 5889 5888 5887 5887 5886 5886 5886 5885 5885 5884 5884 5883 5883 5883 5883 5883 5883 5883 5884 5884 5885 5885 5885
5914 5913 5911 5909 5909 5909 5908 5907 5906 5906 5905 5903 5902 5902 5901 5900 5899 5897 5896 5895 5894 5893 5892 5891 5890 5890 5889 5888 5888 5887 5887 5886 5885 5885 5884 5884 5883 5883 5883 5883 5883 5883 5883 5883 5883 5884 5884 5884 5885
5916 5914 5913 5911 5911 5911 5910 5909 5908 5908 5906 5905 5904 5903 5902 5901 5900 5899 5898 5896 5896 5894 5893 5892 5891 5891 5890 5889 5888 5888 5887 5886 5885 5884 5884 5883 5883 5883 5882 5882 5882 5882 5882 5882 5882 5883 5883 5883 5884
5917 5916 5914 5913 5913 5913 5912 5911 5910 5909 5908 5907 5906 5904 5903 5902 5901 5900 5899 5898 5897 5895 5894 5893 5892 5891 5890 5889 5889 5888 5887 5886 5885 5884 5883 5882 5882 5882 5882 5882 5882 5881 5881 5881 5882 5882 5882 5883 5883
5918 5918 5916 5916 5916 5915 5914 5913 5912 5911 5909 5908 5907 5906 5904 5903 5902 5900 5900 5899 5898 5897 5895 5894 5893 5892 5891 5890 5889 5888 5886 5885 5884 5883 5882 5882 5881 5881 5881 5881 5881 5881 5881 5881 5881 5881 5881 5882 5882
5919 5919 5918 5918 5918 5917 5916 5915 5914 5912 5911 5909 5908 5907 5906 5904 5903 5902 5901 5900 5899 5898 5896 5895 5894 5892 5891 5890 5889 5888 5886 5885 5884 5882 5882 5881 5881 5881 5881 5881 5881 5880 5880 5880 5880 5880 5880 5881 5881
5920 5920 5920 5920 5919 5918 5917 5917 5915 5914 5913 5911 5910 5908 5906 5905 5903 5903 5902 5901 5899 5898 5897 5895 5894 5892 5891 5890 5889 5887 5886 5885 5884 5883 5882 5881 5881 5881 5880 5880 5880 5880 5879 5879 5879 5879 5880 5880 5880
5922 5922 5922 5921 5920 5920 5919 5918 5916 5915 5914 5912 5910 5909 5907 5906 5905 5903 5902 5901 5900 5898 5897 5896 5894 5893 5891 5890 5888 5887 5886 5884 5883 5882 5882 5881 5880 5880 5880 5880 5879 5879 5879 5879 5879 5879 5879 5878 5878
5924 5924 5923 5922 5921 5921 5920 5919 5917 5916 5914 5913 5911 5909 5908 5907 5905 5904 5903 5902 5901 5900 5898 5896 5895 5893 5892 5890 5888 5886 5885 5884 5883 5882 5881 5880 5880 5879 5879 5879 5878 5878 5878 5877 5878 5878 5877 5877 5877
5925 5925 5924 5924 5923 5922 5921 5920 5918 5917 5915 5913 5912 5910 5909 5908 5906 5905 5904 5902 5901 5900 5899 5897 5895 5894 5892 5890 5888 5886 5884 5883 5882 5882 5881 5880 5879 5878 5878 5877 5877 5876 5876 5876 5876 5876 5876 5876 5876
5926 5926 5925 5925 5924 5923 5922 5921 5920 5918 5916 5914 5913 5911 5910 5909 5907 5906 5904 5903 5901 5900 5898 5896 5895 5893 5891 5890 5888 5886 5884 5883 5882 5881 5880 5879 5878 5877 5876 5876 5875 5875 5874 5874 5874 5874 5874 5874 5874
5926 5927 5927 5926 5924 5923 5923 5922 5920 5919 5917 5915 5914 5912 5911 5910 5908 5906 5905 5903 5901 5900 5898 5896 5895 5893 5891 5890 5888 5886 5884 5882 5881 5880 5879 5878 5876 5875 5874 5874 5873 5873 5873 5872 5872 5872 5872 5872 5872
5927 5927 5927 5926 5925 5924 5924 5923 5921 5920 5918 5916 5915 5914 5912 5910 5908 5907 5905 5903 5902 5900 5898 5896 5894 5893 5891 5889 5887 5886 5884 5882 5880 5879 5878 5876 5875 5874 5873 5872 5871 5871 5870 5870 5870 5870 5869 5870 5870
5927 5927 5926 5926 5925 5924 5923 5922 5921 5920 5918 5917 5916 5914 5913 5911 5909 5907 5905 5903 5902 5900 5898 5896 5894 5892 5890 5888 5887 5885 5883 5882 5880 5878 5877 5875 5873 5872 5871 5870 5869 5868 5868 5868 5867 5867 5867 5867 5867
5927 5926 5926 5925 5925 5924 5923 5922 5921 5919 5918 5917 5916 5915 5913 5911 5909 5907 5905 5903 5901 5899 5898 5895 5893 5891 5889 5887 5885 5884 5882 5881 5879 5877 5875 5874 5872 5871 5869 5868 5867 5866 5865 5865 5865 5864 5864 5864 5864
5926 5926 5926 5925 5925 5924 5922 5921 5919 5917 5916 5916 5916 5914 5912 5911 5909 5907 5905 5903 5901 5899 5897 5895 5893 5890 5888 5886 5884 5882 5881 5879 5877 5875 5874 5872 5870 5869 5867 5866 5865 5864 5863 5862 5862 5861 5861 5861 5861
5926 5925 5925 5925 5924 5923 5921 5920 5919 5916 5915 5915 5915 5914 5912 5910 5908 5907 5905 5903 5901 5898 5896 5894 5891 5889 5886 5884 5882 5881 5879 5878 5876 5874 5872 5870 5868 5866 5865 5863 5862 5861 5860 5859 5859 5858 5858 5858 5858
5925 5925 5924 5924 5923 5922 5921 5920 5918 5917 5915 5914 5913 5912 5911 5909 5907 5906 5904 5902 5900 5898 5896 5893 5890 5888 5885 5882 5880 5879 5878 5876 5874 5872 5870 5868 5866 5864 5863 5861 5860 5858 5857 5856 5855 5855 5855 5854 5854
5923 5923 5923 5922 5922 5921 5920 5918 5917 5915 5914 5913 5911 5910 5910 5908 5906 5905 5903 5901 5899 5897 5895 5892 5890 5887 5884 5882 5880 5878 5876 5875 5873 5871 5869 5866 5864 5862 5860 5859 5857 5855 5854 5853 5852 5852 5851 5851 5850
5921 5921 5921 5920 5919 5919 5919 5917 5915 5914 5913 5911 5910 5908 5907 5907 5905 5904 5902 5901 5898 5896 5894 5891 5889 5886 5884 5881 5879 5877 5875 5873 5871 5869 5866 5864 5862 5860 5858 5856 5854 5853 5851 5850 5849 5848 5847 5847 5846
5919 5919 5919 5918 5918 5917 5917 5916 5914 5913 5911 5910 5909 5908 5907 5905 5904 5902 5901 5899 5897 5894 5892 5890 5887 5885 5882 5880 5878 5876 5874 5871 5869 5867 5864 5862 5860 5858 5856 5854 5852 5850 5848 5847 5845 5844 5843 5842 5842
5917 5917 5917 5916 5915 5915 5914 5913 5913 5911 5910 5908 5908 5907 5905 5904 5902 5901 5899 5897 5895 5892 5890 5888 5886 5883 5881 5878 5876 5874 5872 5870 5867 5865 5863 5860 5858 5856 5854 5851 5849 5847 5845 5843 5842 5840 5839 5838 5837
5914 5915 5915 5914 5913 5913 5912 5911 5911 5909 5907 5907 5905 5904 5903 5902 5901 5899 5897 5895 5893 5890 5888 5886 5883 5881 5878 5876 5874 5872 5869 5867 5865 5863 5860 5858 5856 5853 5851 5848 5846 5844 5842 5840 5838 5837 5835 5834 5833
5912 5912 5912 5911 5910 5910 5909 5909 5908 5906 5905 5904 5903 5902 5901 5900 5898 5896 5894 5892 5890 5888 5886 5883 5881 5879 5876 5874 5871 5869 5867 5865 5863 5860 5858 5855 5853 5850 5847 5845 5843 5841 5838 5836 5834 5832 5831 5830 5828
5909 5909 5909 5908 5907 5906 5906 5905 5905 5904 5903 5902 5901 5900 5898 5897 5895 5893 5891 5889 5887 5885 5883 5881 5878 5876 5874 5871 5869 5866 5864 5862 5860 5857 5855 5852 5850 5847 5844 5842 5839 5837 5835 5832 5830 5829 5827 5825 5824
5905 5905 5905 5905 5905 5904 5902 5904 5902 5901 5900 5899 5898 5896 5895 5893 5891 5890 5888 5886 5883 5881 5879 5877 5875 5873 5871 5868 5866 5863 5861 5859 5856 5854 5851 5849 5846 5843 5841 5838 5836 5834 5831 5829 5826 5825 5823 5821 5819
5902 5901 5902 5902 5902 5900 5899 5902 5899 5898 5897 5896 5894 5893 5891 5890 5889 5887 5885 5883 5880 5878 5876 5874 5872 5870 5867 5865 5863 5860 5858 5855 5852 5850 5847 5844 5842 5839 5837 5834 5832 5829 5827 5824 5822 5820 5818 5816 5814
Wind_Speed
15 15 14 14 14 14 14 14 14 13 12 13 12 11 11 11 10 9 9 9 9 9 8 8 7 7 6 6 6 5 4 3 3 2 1 0 1 2 3 3 4 4 5 6 5 5 5 5 5
15 15 15 15 15 14 15 15 14 14 13 12 12 11 11 11 10 10 10 9 9 9 8 8 7 7 7 6 6 6 5 3 3 1 1 0 1 2 2 2 3 3 5 6 5 5 5 5 5
15 15 14 15 16 16 15 15 14 14 13 12 12 12 11 11 11 11 10 10 10 9 9 8 7 7 6 6 6 6 5 4 3 2 1 1 2 2 2 2 3 3 4 5 5 5 5 5 5
14 14 14 16 16 16 15 15 15 14 13 12 12 11 11 12 12 11 11 11 11 10 9 8 7 7 7 7 6 5 4 4 4 3 2 2 2 2 2 2 2 3 3 4 5 5 4 5 5
12 13 15 15 16 16 15 15 15 14 13 13 13 12 11 12 12 12 11 11 11 10 10 9 8 8 7 7 7 6 5 4 4 3 3 2 2 2 2 2 2 3 3 4 5 5 5 5 5
11 13 16 17 17 16 15 15 15 14 13 13 13 13 12 12 12 12 11 11 11 11 10 9 8 8 7 7 7 7 6 6 5 5 3 2 2 2 2 2 2 2 3 4 5 6 6 5 6
12 13 16 17 17 17 15 15 15 14 13 13 13 13 12 11 12 12 12 11 11 11 10 10 9 8 7 7 6 6 6 6 5 5 4 2 2 2 2 2 1 1 1 3 4 5 5 6 6
11 13 15 15 15 15 16 15 15 15 14 13 13 12 12 11 11 12 12 11 10 10 10 10 9 8 7 7 7 7 6 6 6 4 3 2 1 1 2 2 1 1 1 2 3 4 5 6 6
11 13 14 13 13 14 15 15 15 15 14 14 13 13 12 11 11 11 11 11 10 10 10 11 10 8 8 8 7 7 7 6 6 4 3 2 1 1 2 1 1 1 2 2 2 3 4 5 5
9 11 12 13 13 14 14 13 14 15 14 13 13 12 12 12 11 11 11 11 11 11 11 10 10 9 8 8 7 7 7 6 6 5 4 3 1 1 1 1 1 1 2 2 3 3 3 4 5
7 10 11 12 13 14 13 13 13 14 13 13 13 13 13 12 11 11 11 11 10 10 10 10 10 10 8 8 8 8 8 7 6 6 5 4 2 2 2 2 1 2 2 3 3 3 3 4 5
7 9 10 11 13 13 13 13 13 12 13 13 13 13 13 12 12 11 11 11 11 10 10 10 10 10 10 9 9 9 8 7 7 6 5 4 4 3 3 3 2 3 3 3 3 4 4 4 5
7 8 9 10 12 12 13 14 13 12 12 12 13 12 12 12 12 11 11 11 11 11 11 11 11 10 10 9 9 9 8 7 6 6 6 5 5 4 4 4 4 4 5 5 5 5 5 6 6
5 6 8 10 11 12 13 14 14 13 13 13 13 13 12 12 12 11 11 11 11 11 11 11 11 10 10 9 9 9 9 8 6 6 7 6 6 5 5 5 5 5 5 6 7 6 6 7 7
5 6 6 8 11 12 12 14 14 14 14 14 12 12 12 11 11 11 11 12 12 11 11 11 11 10 10 10 9 9 9 9 9 8 8 7 6 6 5 5 6 6 7 7 7 7 7 8 8
5 4 5 7 9 9 10 13 13 14 14 14 13 13 12 11 10 10 10 11 11 12 11 11 11 10 10 10 10 9 9 9 9 9 9 8 7 7 6 7 7 7 8 8 8 8 8 9 9
3 5 5 6 8 8 9 11 11 13 14 14 13 13 13 12 11 11 11 11 11 12 12 12 12 11 11 10 10 10 10 10 10 10 9 9 9 8 8 8 8 8 8 8 9 9 9 9 10
2 3 4 5 6 7 8 9 9 9 12 13 12 12 12 12 12 12 12 12 12 12 12 12 13 12 12 11 10 10 10 10 10 10 10 10 9 9 9 9 8 8 8 9 9 9 9 9 10
2 3 4 5 5 6 7 8 9 8 9 10 11 11 12 12 12 12 12 12 13 13 13 13 13 13 12 10 10 10 10 11 11 11 11 11 10 10 10 9 9 9 9 9 9 10 10 10 11
5 4 4 3 5 5 7 9 10 10 10 11 11 12 12 12 12 12 11 12 12 13 13 13 14 13 12 11 10 10 10 11 11 11 12 12 11 11 10 10 9 9 10 10 11 12 11 12 12
5 6 5 6 8 10 10 10 11 11 11 11 12 12 11 12 12 11 11 11 12 12 13 14 14 14 13 11 11 10 11 11 12 12 12 12 12 11 11 11 10 10 10 11 11 12 13 13 13
5 5 5 7 8 9 10 11 9 9 11 12 13 10 10 10 10 10 11 11 12 12 13 14 14 14 13 12 11 11 11 11 12 13 13 12 12 12 12 12 11 10 11 11 11 12 13 13 14
6 6 5 7 8 9 10 10 9 9 11 12 12 10 11 10 10 10 10 11 12 13 14 14 14 14 13 12 12 12 12 13 13 13 12 12 12 12 12 12 12 11 12 11 11 12 13 14 15
7 8 8 9 9 10 10 9 8 8 10 11 10 9 10 10 11 10 10 11 13 13 14 14 14 14 13 13 13 13 13 13 14 13 12 12 13 13 13 13 13 12 12 11 12 12 13 14 14
9 10 10 9 7 8 9 10 9 8 9 10 10 10 10 11 10 10 11 12 13 13 14 14 14 14 14 14 13 13 13 13 13 13 12 13 13 14 14 13 13 13 13 13 13 13 14 14 14
11 11 11 10 9 10 11 9 8 8 8 9 10 11 11 12 10 11 12 12 13 14 15 14 14 14 14 14 14 14 14 13 13 13 13 14 14 15 15 14 13 13 12 13 13 14 14 14 15
12 12 11 12 12 12 12 10 8 9 9 9 11 11 11 12 11 12 12 12 13 14 15 15 15 15 14 14 15 15 15 15 15 15 16 15 15 16 16 14 14 14 13 13 14 14 14 14 15
11 11 12 12 12 13 12 11 10 10 10 11 12 12 13 13 14 15 14 14 14 15 15 15 15 15 15 15 15 15 16 16 16 16 17 17 16 16 16 15 15 15 15 15 15 16 16 15 15
11 12 13 13 13 14 14 13 12 11 11 11 13 14 15 15 16 16 15 15 15 15 15 15 16 16 15 15 15 16 16 17 17 17 17 17 17 17 17 16 16 16 16 16 16 16 16 16 17
14 13 14 15 15 16 16 15 13 13 14 12 13 15 15 16 16 16 16 15 14 15 15 16 17 17 16 16 16 16 17 18 18 18 18 18 18 18 18 18 17 17 17 18 18 18 18 18 18
Wind_Direction
77 69 67 65 60 57 56 52 51 51 53 52 49 50 49 49 50 52 49 47 48 46 45 45 48 52 54 54 54 54 54 53 50 54 67 236 244 243 255 249 231 222 214 205 200 201 202 204 201
71 66 64 60 58 55 55 56 53 52 55 55 51 50 50 50 54 54 51 48 47 47 46 44 45 50 53 51 47 48 44 45 43 40 29 338 291 258 259 247 238 226 210 206 197 191 194 202 203
73 66 58 58 58 55 56 55 53 51 49 53 52 50 52 55 55 53 53 52 49 45 46 44 44 48 51 50 49 46 43 42 35 25 355 302 292 280 272 257 238 220 200 196 197 196 197 196 196
69 57 56 63 62 59 56 54 54 50 50 51 51 46 51 55 55 52 51 51 48 45 46 43 46 47 46 48 44 37 30 26 19 13 356 330 296 280 270 254 238 222 205 201 208 209 218 214 206
69 56 54 59 62 60 57 51 52 54 53 52 51 51 51 53 55 52 48 47 46 44 46 41 39 42 43 45 39 32 24 15 3 352 337 321 317 288 268 260 254 234 219 218 222 223 225 218 210
62 53 52 52 54 56 56 50 48 51 49 49 50 55 52 52 52 50 48 46 46 44 43 39 37 38 40 42 38 29 20 10 360 350 337 320 316 322 298 264 255 238 230 225 222 221 216 212 210
58 54 58 56 51 51 54 50 46 47 48 48 49 51 49 50 49 47 47 47 44 41 38 34 36 35 34 38 35 27 22 12 3 358 348 331 306 305 311 282 277 281 234 209 210 213 212 214 214
58 59 54 50 46 44 46 46 46 44 44 46 51 47 44 47 47 44 44 42 41 39 38 34 34 38 34 30 27 26 21 13 7 4 359 345 308 292 299 290 261 251 240 209 217 218 221 218 224
62 57 50 44 43 42 43 42 41 43 42 45 49 47 44 45 46 42 39 36 37 37 35 34 32 33 30 23 21 18 12 11 15 8 6 1 328 302 324 291 271 243 242 239 224 224 231 230 234
60 52 45 40 39 41 42 41 37 38 41 40 41 41 40 42 43 41 37 34 33 34 32 31 33 29 25 23 20 15 11 14 13 5 357 357 349 314 326 321 280 253 255 258 254 251 242 241 241
53 49 44 41 38 38 37 38 36 35 37 37 39 40 39 39 39 40 37 34 33 33 35 33 29 27 24 20 19 13 8 7 5 6 2 2 354 330 296 301 284 267 259 251 254 254 253 252 243
55 50 45 39 40 37 35 35 34 33 33 35 36 38 40 40 38 36 36 34 34 31 27 28 26 24 25 24 20 16 10 6 2 2 360 358 347 324 312 296 284 275 269 259 259 260 263 253 242
68 57 45 43 44 37 34 33 30 29 30 32 32 32 37 41 39 33 30 27 25 25 21 20 19 17 19 18 17 14 9 0 357 357 349 341 333 321 302 285 279 275 271 267 261 259 258 247 247
76 60 47 43 40 35 34 33 30 26 26 28 28 32 35 37 37 32 27 24 21 20 17 14 13 13 11 10 8 6 4 1 355 352 343 333 326 318 306 296 290 285 276 266 262 264 262 249 251
71 70 52 40 34 28 28 29 26 23 23 22 27 32 32 29 30 29 26 24 20 16 12 9 9 7 5 4 2 1 358 360 0 354 348 339 327 316 304 295 291 287 277 268 263 259 255 254 252
54 49 51 41 34 21 18 20 19 21 22 19 22 25 25 22 23 24 24 20 17 16 10 5 4 1 359 359 357 353 351 351 350 350 348 343 335 320 309 294 287 283 279 274 266 262 255 253 254
40 21 23 25 16 9 11 14 14 18 19 17 17 18 19 21 15 15 16 14 13 13 9 5 0 355 352 351 351 350 349 347 345 344 345 340 335 328 318 306 290 279 274 273 271 266 261 259 257
24 12 13 18 3 351 351 355 358 10 11 11 13 14 12 15 12 10 9 7 7 7 6 2 359 353 348 346 347 347 347 346 344 340 337 333 330 327 323 316 303 289 277 273 270 268 270 267 261
301 334 353 352 344 339 339 336 335 350 3 9 9 7 5 4 3 2 3 2 1 1 2 0 357 353 350 346 346 344 343 343 341 337 333 330 327 324 322 315 306 295 287 280 275 275 275 273 267
275 301 313 322 314 311 325 330 335 342 355 6 5 1 1 1 360 358 359 357 355 356 356 355 353 351 349 345 340 342 342 341 337 336 336 334 327 326 323 316 307 298 291 285 278 276 274 272 270
274 301 307 301 299 299 310 330 330 345 348 357 357 353 353 359 359 355 354 355 355 353 351 351 352 351 350 345 340 342 342 338 335 336 337 334 332 331 328 322 311 302 295 288 281 278 275 274 273
274 290 297 296 293 300 307 323 332 337 341 348 349 348 346 350 354 350 347 348 350 350 349 349 349 350 350 348 347 344 340 335 335 335 334 333 333 332 329 323 315 308 304 295 285 281 279 276 275
267 271 277 285 293 298 310 320 331 335 335 342 347 349 347 347 354 347 343 344 344 345 345 346 346 344 344 343 342 341 340 338 336 336 335 336 335 332 328 323 319 314 308 301 290 285 282 279 277
266 276 282 286 292 299 300 311 322 333 336 345 354 352 353 350 354 352 345 343 341 339 340 342 343 343 342 340 340 338 336 334 336 340 340 338 336 334 330 324 316 314 310 305 298 290 288 281 277
257 272 280 281 286 296 302 305 309 317 329 343 349 346 350 349 347 344 344 342 337 335 336 337 339 339 339 339 337 336 333 332 335 337 336 334 333 332 330 326 320 313 306 302 299 292 294 289 280
258 269 275 281 283 291 300 304 316 324 332 338 340 342 338 338 336 339 338 338 336 334 333 333 334 335 335 335 335 336 335 333 333 332 330 328 327 325 324 322 319 316 311 304 299 296 294 290 286
255 260 274 281 284 290 296 291 305 320 329 332 332 334 330 323 324 332 333 332 331 328 330 332 332 332 331 331 331 331 329 329 330 330 329 326 324 324 323 319 315 314 312 307 303 300 295 292 289
253 266 274 279 280 286 291 293 307 316 328 329 326 324 324 319 324 327 328 328 325 324 325 327 329 327 326 326 326 327 327 325 325 325 323 323 323 324 321 317 316 316 314 311 307 303 297 292 290
250 258 262 272 277 279 283 290 299 307 317 322 324 323 322 320 320 323 323 323 323 325 322 320 322 323 322 322 323 322 322 323 321 319 319 318 319 318 316 313 312 312 312 309 306 306 302 299 294
250 255 257 263 271 279 285 288 295 308 311 312 315 317 318 315 316 319 320 319 324 326 321 316 317 318 317 317 316 316 317 318 318 316 315 315 315 315 315 312 310 310 309 306 305 304 302 299 296